DECAYED

CZ-4 DEB, 26339 (Decayed)

Orbit data source: Space-Track

CZ-4 DEB, 26339 was space debris in LEO originally from a launch on Thu, 14 Oct 1999 UTC launched from the Taiyaun Space Center, China (TSC). Debris objects in space refer to the collection of defunct objects orbiting the Earth. Examples of debris include non-operational satellites, rocket bodies, and fragments generated from explosions, collisions, or faulty payload assembly.

Not visible in the next 10 days
Identifier
26339, 1999-057HY
Orbit
Decayed
Country
Flag of CNCN / PRC
Related business
Manufacturer
Unknown
Mission
Decayed spacecraft
Bus & Motor
Unknown
Mass
Unknown
Launch date (UTC)
1999-10-14 (26 years ago)
Launch vehicle
Unknown
Launch site
Taiyaun Space Center, China (TSC)
Object type
Payload
Rocket body
Debris
Shape & HBR
Unknown shape, 0.1 m
Radar Cross Section
Small (<0.1 m²)

Expand to show TLE details & history
Last TLE update: 9 months ago

TLE from 9 months ago
0 CZ-4 DEB
1 26339U 99057HY  25137.66769375  .10224122  28311-5  60462-2 0  9994
2 26339  98.0668 209.5495 0017477 266.7642  93.1645 16.18206985337079
Epoch: 2025-05-17T16:01Z
TLE epoch observation values (Epoch: 2025-05-17T16:01:28.739Z)
Latitude
0.00008°
Longitude
93.57402°
Altitude
228.283 km
Speed
7.769 km/s
True Right ascension
13h 58m 11s
True Declination
0° 00' 00"
Sunlit
Object was in full shadow at epoch
Visualization orbit readout
Latitude
Unknown
Longitude
Unknown
Altitude
Unknown
Speed
Unknown
Apparent Right ascension
Unknown
Apparent Declination
Unknown
Sunlit
N/A
Visualization observer readout
Local Sidereal Time
02:56:08
Azimuth
Unknown
Elevation
Unknown
Doppler factor
Unknown
Orbital elements
Apogee altitude
232.825 km
Perigee altitude
209.758 km
Semi-major axis
6,599.429 km
Eccentricity
0.00175
Inclination
98.0668°
RAAN
209.5495°
Arg. of periapsis
266.7642°
True anomaly
93.36444°
Mean anomaly
93.1645°
Eccentric anomaly
93.26447°
Mean motion
4.0484 °/min
Orbital period
88.92 mins
BSTAR
0.0060462
Loading maneuver chart data...
Computing Atmospheric mass density...
Loading historical data...
Loading historical data...
Loading historical data...
Loading historical data...
Loading historical data...
Loading historical data...
Loading historical data...

Documentation

Showing up to 5 results
|